Regional Weather Roundup
Issued by NWS

Home | Current Version | Previous Version | Text Only | Print | Product List | Glossary On
Versions: 1 2 3 4 5 6 7 8 9 10 11 12 13 14 15 16 17 18 19 20 21 22 23 24 25 26 27
000
ASUS45 KREV 152210
RWRNV
NEVADA REGIONAL WEATHER ROUNDUP
NATIONAL WEATHER SERVICE RENO NV
200 PM PST FRI DEC 15 2017

NOTE: "FAIR" INDICATES FEW OR NO CLOUDS BELOW 12,000 FEET WITH NO
SIGNIFICANT WEATHER AND/OR OBSTRUCTIONS TO VISIBILITY.

NVZ001-003-004-152300-
WESTERN NEVADA

CITY           SKY/WX    TMP DP  RH WIND       PRES   REMARKS
RENO           CLOUDY    40  20  44 CALM      30.11F
CARSON CITY    FAIR      43  18  36 CALM      30.12F
MINDEN         FAIR      43  19  39 CALM      30.12F
SLIDE MTN        N/A     41  12  30 SW28        N/A
PYRAMID LAKE     N/A     41 N/A N/A NE1         N/A
FALLON         PTSUNNY   43  14  31 CALM      30.11F
LOVELOCK       SUNNY     41  21  44 CALM      30.13F
HAWTHORNE      SUNNY     46  18  31 CALM      30.10F
$$

NVZ002-CAZ072-073-152300-
NORTHERN AND CENTRAL SIERRA

CITY           SKY/WX    TMP DP  RH WIND       PRES   REMARKS
S. LAKE TAHOE  MOSUNNY   59  12  15 S9        30.16F
TRUCKEE          N/A     55  12  18 CALM      30.16F
SQUAW VLY 8000   N/A     45  10  24 SW15        N/A
BLUE CANYON    CLOUDY    54  17  23 S8        30.18F
MAMMOTH LAKES  FAIR      59 -12   5 SW24G37   30.20F
$$

NVZ030-031-036-152300-
NORTHERN NEVADA

CITY           SKY/WX    TMP DP  RH WIND       PRES   REMARKS
ELKO           PTSUNNY   37  23  56 SW3       30.10F
WINNEMUCCA     PTSUNNY   45  23  42 E3        30.10F
WENDOVER       PTSUNNY   31  23  72 E5        30.15F
$$

NVZ035-037-152300-
CENTRAL NEVADA

CITY           SKY/WX    TMP DP  RH WIND       PRES   REMARKS
ELY            MOSUNNY   57  -6   7 S3        30.11F
EUREKA           N/A     50  12  21 S6        30.11F
$$

NVZ013-014-152300-
SOUTH CENTRAL NEVADA

CITY           SKY/WX    TMP DP  RH WIND       PRES   REMARKS
TONOPAH        SUNNY     53  10  18 CALM      30.14F
$$

NVZ017-020-022-152300-
SOUTHERN NEVADA

CITY           SKY/WX    TMP DP  RH WIND       PRES   REMARKS
LAS VEGAS      MOSUNNY   60  16  18 VRB3      30.12F
N. LAS VEGAS   SUNNY     60  11  14 SE3       30.13F
NELLIS AFB     SUNNY     62  15  16 E3        30.12F
HENDERSON      SUNNY     59  15  18 N7        30.14F
MERCURY        NOT AVBL
$$




USA.gov is the U.S. government's official web portal to all federal, state and local government web resources and services.